Tracking 31027 objects as of 19-Jul-2025
HD Live streaming from Space Station
objects crossing your sky now

IRIDIUM 36

Track IRIDIUM 36 now!
10-day predictions
IRIDIUM 36 is classified as:


NORAD ID: 24967
Int'l Code: 1997-056C
Perigee: 772.0 km
Apogee: 774.9 km
Inclination: 86.4 °
Period: 100.2 minutes
Semi major axis: 7144 km
RCS: 3.602 m2 (large)
Launch date: September 27, 1997
Source: United States (US)
Launch site: AIR FORCE WESTERN TEST RANGE (AFWTR)
Your satellite tracking list
PRISMA
Track 1 satellite(s)




NASA's NSSDC Master Catalog

Two Line Element Set (TLE):
1 24967U 97056C   25199.60645751  .00000320  00000-0  10007-3 0  9991
2 24967  86.4008 159.8088 0002020  84.9077 275.2351 14.37628742456738
Source of the keplerian elements: AFSPC